Location: Jaite
(41.2884°N, 81.5737°W)
Time: 09:42:40
(UTC+00:00)

Meteor 1-24 Rocket - Pass Details

Date: 18 January 2020
Orbit: 791 x 926 km, 81.3° (Epoch: 18 February)

Event Time Altitude Azimuth Distance (km) Brightness Sun altitude
Exits shadow 10:27:02 71° 301° (WNW) 931 3.6 -26.3°
Maximum altitude 10:27:27 74° 263° (W) 915 3.6 -26.2°
Drops below altitude 10° 10:33:18 10° 179° (S) 2,570 6.3 -25.1°
Sets 10:35:47 0° 178° (S) 3,522 7.0 -24.6°
